SCP
0 0 0 0 0 0 0 0 0 0 0 0 0 0 0 0 0 0 0 0 0 0 0 0 0 0 0 0 0 0 0 0 0 0 0 0 0 0 0 0 0 0 0
0 0 0 0 0 0 0 0 0 0 0 0 0 0 0 0 0 0 0 0 0 0 0 0 0 0 0 0 0 0 0 0 0 0 0 0 0 0 0 0 0 0 0
0 0 0 0 0 0 0 0 0 0 0 0 0 0 0 0 0 0 0 0 0 0 0 0 0 0 0 0 0 0 0 0 0 0 0 0 0 0 0 0 0 0 0
0 0 0 0 0 0 0 0 0 0 0 0 0 0 0 0 0 0 0 0 0 0 0 0 0 0 0 0 0 0 0 0 0 0 0 0 0 0 0 0 0 0 0
0 0 0 0 0 0 0 0 0 0 0 0 0 0 0 0 0 0 0 0 0 0 0 0 0 0 0 0 0 0 0 0 0 0 0 0 0 0 0 0 0 0 0
0 -0 0 0 0 0 0 0 0 0 0 0 0 0 0 0 0 0 0 0 0 0 0 0 0 0 0 0 0 0 0 0 0 0 0 0 0 0 0 0 0 0 0
0 0 0 0 0 0 0 0 0 0 0 0 0 0 0 0 0 0 0 0 0 0 0 0 0 0 0 0 0 0 0 0 0 0 0 0 0 0 0 0 0 0 0
0 0 0 0 0 0 0 0 0 0 0 0 0 0 0 0 0 0 0 0 0 0 0 0 0 0 0 0 0 0 0 0 0 0 0 0 0 0 0 0 0 0 0
0 0 0 0 0 0 0 0 0 0 0 0 0 0 0 0 0 0 0 0 0 0 0 0 0 0 0 0 0 0 0 0 0 0 0 0 0 0 0 0 0 0 0
0 0 0 0 0 0 -0 0 0 0 0 0 0 0 0 0 0 0 0 0 0 0 0 0 0 0 0 0 0 0 0 0 0 0 0 0 0 0 0 0 0 0 0
0 0 0 0 0 0 0 0 0 0 0 0 0 0 0 0 0 0 0 0 0 0 0 0 0 0 0 0 0 0 0 0 0 0 0 0 0 0 0 0 0 0 0
-0 -0 -0 -0 0 0 0 0 0 0 0 0 0 0 0 0 0 0 0 0 0 0 0 0 0 0 0 0 0 0 0 0 0 0 0 0 0 0 0 0 0 0 0
0 0 0 0 0 0 0 0 0 0 0 0 0 0 0 0 0 0 0 0 0 0 0 0 0 0 0 0 0 0 0 0 0 0 0 0 0 0 0 0 0 0 0
0 0 0 0 0 0 0 0 0 0 0 0 0 0 0 0 0 0 0 0 0 0 0 0 0 0 0 0 0 0 0 0 0 0 0 0 0 0 0 0 0 0 0
-0 0 0 0 0 0 0 0 0 0 0 0 0 0 0 0 0 0 0 0 0 0 0 0 0 0 0 0 0 0 0 0 0 0 0 0 0 0 0 0 0 0 0
-0 -0 -0 0 0 0 0 0 0 0 0 0 0 0 0 0 0 0 0 0 0 0 0 0 0 0 0 0 0 0 0 0 0 0 0 0 0 0 0 0 0 0 0
0 0 0 0 0 0 0 0 0 0 0 0 0 0 0 0 0 0 0 0 0 0 0 0 0 0 0 0 0 0 0 0 0 0 0 0 0 0 0 0 0 0 0
0 0 0 0 0 0 0 0 0 0 0 0 0 0 0 0 0 0 0 0 0 0 0 0 0 0 0 0 0 0 0 0 0 0 0 0 0 0 0 0 0 0 0
0 0 0 0 0 0 0 0 0 0 0 0 0 0 0 0 0 0 0 0 0 0 0 0 0 0 0 0 0 0 0 0 0 0 0 0 0 0 0 0 0 0 0
0 0 0 0 0 0 0 0 0 0 0 0 0 0 0 0 0 0 0 0 0 0 0 0 0 0 0 0 0 0 0 0 0 0 0 0 0 0 0 0 0 0 0
0 0 0 0 0 0 0 0 0 0 0 0 0 0 0 0 0 0 0 0 0 0 0 0 0 0 0 0 0 0 0 0 0 0 0 0 0 0 0 0 0 0 0
0 0 0 0 0 0 0 0 0 0 0 0 0 0 0 0 0 0 0 0 0 0 0 0 0 0 0 0 0 0 0 0 0 0 0 0 0 0 0 0 0 0 0
0 0 0 0 0 0 0 0 0 0 0 0 0 0 0 0 0 0 0 0 0 0 0 0 0 0 0 0 0 0 0 0 0 0 0 0 0 0 0 0 0 0 0
0 0 0 0 0 0 0 0 0 0 0 0 0 0 0 0 0 0 0 0 0 0 0 0 0 0 0 0 0 0 0 0 0 0 0 0 0 0 0 0 0 0 0
0 0 0 0 0 0 0 0 0 0 0 0 0 0 0 0 0 0 0 0 0 0 0 0 0 0 0 0 0 0 0 0 0 0 0 0 0 0 0 0 0 0 0
0 0 0 0 0 0 0 0 0 0 0 0 0 0 0 0 0 0 0 0 0 0 0 0 0 0 0 0 0 0 0 0 0 0 0 0 0 0 0 0 0 0 0
Wind_Speed_500mb
33 31 31 31 30 27 33 36 38 37 37 39 38 43 48 53 65 74 74 96 95 83 79 82 86 91 88 85 86 76 65 63 62 31 40 30 25 26 24 23 19 12 17
35 33 31 30 25 19 16 15 14 14 15 12 13 17 25 32 39 45 49 52 56 51 55 58 58 55 41 27 25 22 16 14 19 27 28 26 23 23 15 10 14 14 16
44 42 36 30 29 26 23 20 19 18 18 18 17 16 11 9 9 13 14 10 6 10 14 17 29 32 38 31 19 15 14 9 10 9 19 19 17 16 15 13 15 20 18
54 55 52 51 51 51 49 45 43 42 43 45 45 49 44 43 39 36 32 32 34 40 45 43 30 21 17 14 11 10 14 13 14 11 13 17 19 17 18 20 15 13 15
65 63 63 59 56 57 55 51 49 50 50 47 46 47 49 48 47 40 37 33 28 30 28 22 15 16 16 12 11 11 11 11 11 15 19 21 19 18 17 13 12 11 13
62 62 56 58 55 54 53 51 47 45 42 38 36 32 24 29 30 28 30 29 24 21 20 18 17 13 12 12 13 14 15 16 15 14 16 16 16 14 11 10 10 11 13
60 59 54 49 49 49 47 45 44 42 38 35 33 32 33 34 33 30 26 23 21 21 20 20 19 18 16 14 13 12 12 13 12 12 9 9 8 6 7 9 12 15 18
62 59 54 50 49 49 47 47 44 41 40 40 39 37 37 40 34 34 29 25 25 24 24 23 20 18 16 14 12 10 10 10 9 8 5 2 2 6 11 13 16 18 21
63 56 51 49 48 45 44 43 40 35 36 37 36 33 33 36 31 31 27 24 22 23 20 19 16 14 12 10 7 6 6 5 4 3 4 5 8 12 16 18 18 20 23
55 53 48 46 47 45 43 42 39 34 35 34 31 30 30 29 26 24 22 21 18 17 15 12 11 8 7 6 6 5 5 5 5 7 8 11 13 16 19 20 22 24 25
46 42 43 42 42 42 37 36 33 30 29 27 24 25 23 21 20 17 17 15 14 12 11 9 6 4 5 6 8 9 9 12 13 16 18 19 20 20 23 25 27 28 30
36 37 37 37 36 34 29 30 27 25 23 22 21 20 19 18 17 14 14 12 10 9 8 7 7 9 11 12 15 16 17 18 20 20 21 23 24 25 26 27 28 29 31
27 28 26 26 26 25 23 23 20 21 20 19 17 16 16 14 12 10 9 8 8 8 9 11 13 16 19 21 25 27 26 25 25 26 27 28 30 31 31 31 32 35 34
23 22 20 19 18 15 13 13 12 12 12 12 11 11 11 11 12 11 10 11 12 13 15 17 20 25 28 29 26 26 26 27 28 30 32 33 32 33 36 39 40 41 44
30 27 23 17 13 13 12 11 10 9 9 10 10 9 10 12 13 16 21 24 23 18 19 19 22 27 25 25 26 26 26 27 29 32 35 38 38 39 39 41 43 44 46
28 26 24 23 21 17 13 14 14 14 14 14 15 15 14 15 19 20 21 20 21 25 27 27 26 24 30 32 34 34 36 35 34 36 39 41 43 43 43 42 43 44 44
34 31 29 26 23 20 18 14 13 15 16 18 20 22 22 23 22 28 23 20 23 21 23 24 25 28 32 36 39 39 39 39 40 40 42 44 46 44 44 44 42 41 39
35 34 31 27 24 23 22 19 16 13 14 14 22 21 21 24 30 29 26 23 27 24 22 25 29 34 38 39 37 37 37 38 39 40 41 41 42 41 39 39 38 39 39
33 30 27 24 23 20 19 18 15 12 11 12 15 17 15 18 22 24 23 21 20 20 22 24 27 30 31 32 32 32 33 34 35 35 34 35 36 37 36 35 35 35 35
26 23 19 17 16 14 12 11 9 8 9 10 15 13 14 14 15 16 18 19 20 21 22 23 24 25 27 29 30 31 30 30 29 29 30 32 32 33 32 32 31 32 31
21 18 15 13 11 10 9 8 8 7 7 8 11 15 15 15 16 16 16 16 16 17 19 21 22 24 25 26 27 27 27 28 27 27 26 26 26 25 24 26 26 26 27
16 14 11 9 8 7 7 7 8 9 10 12 15 17 18 19 19 19 20 22 23 23 23 23 24 23 23 23 24 24 25 25 25 24 24 24 23 23 24 25 26 28 30
15 13 11 10 10 10 9 8 9 9 10 11 12 13 13 14 15 15 15 15 16 17 20 22 24 25 28 30 31 31 29 26 25 24 24 24 25 27 29 30 32 33 32
10 10 11 10 9 8 8 8 9 10 12 13 13 13 13 15 16 18 21 22 24 27 29 31 33 34 33 32 33 33 33 32 30 29 30 32 34 36 36 40 41 38 38
5 5 6 6 7 8 11 11 11 12 12 13 13 14 15 17 19 21 23 24 27 29 31 32 33 34 35 36 35 34 33 33 32 31 33 41 46 40 39 41 39 36 36
4 6 8 8 8 8 9 11 11 11 11 12 13 14 17 19 21 23 26 28 31 32 34 35 37 39 40 41 41 42 41 40 38 36 37 40 47 45 44 44 42 39 37
Wind_Direction_500mb
188 181 187 197 204 207 219 223 229 239 239 246 249 247 240 239 241 243 236 237 233 237 245 252 255 240 242 248 251 248 255 257 256 231 225 223 206 196 192 191 191 247 255
164 154 156 157 168 179 177 171 185 196 211 219 233 240 252 253 257 257 253 234 227 233 232 226 232 225 229 233 227 215 175 155 214 184 169 167 165 152 169 207 229 249 260
138 135 131 130 130 134 132 125 125 128 124 118 116 112 117 134 154 162 163 179 184 203 196 161 132 123 124 119 112 106 102 107 119 134 154 163 173 200 218 228 250 232 236
122 117 118 116 114 110 108 107 106 103 102 100 101 99 95 90 92 96 100 106 112 117 120 115 101 103 104 99 91 100 113 114 111 118 143 173 197 207 228 224 217 233 252
110 110 108 108 108 108 106 103 102 101 98 98 100 99 99 97 89 88 93 90 90 111 125 123 111 103 93 93 95 96 112 132 153 184 194 201 201 190 189 201 225 252 274
95 95 100 103 103 101 102 103 103 99 98 99 99 97 99 96 93 91 95 97 104 111 120 118 115 97 84 98 113 118 118 108 115 125 138 148 162 177 194 213 242 267 291
89 88 85 86 90 92 93 94 92 93 94 93 95 97 100 97 93 92 91 99 103 100 97 91 101 102 99 96 101 103 104 106 112 121 133 150 167 201 241 268 282 289 299
85 81 79 83 84 85 86 85 88 91 94 93 92 95 100 96 93 89 88 91 96 100 102 101 97 98 98 95 94 103 109 115 124 125 127 156 248 282 286 293 298 304 306
78 77 77 77 80 82 83 82 82 85 88 88 86 88 85 89 90 92 89 88 96 96 95 97 99 97 97 95 95 81 79 82 73 37 355 318 308 296 292 291 289 292 300
80 81 82 83 81 80 79 81 81 82 83 85 89 85 83 84 82 78 80 79 75 82 83 83 79 70 58 46 24 24 4 356 337 313 301 293 288 284 286 286 290 295 306
76 79 79 77 80 79 79 80 81 79 78 78 77 78 74 73 73 69 72 69 67 64 65 64 58 36 360 333 326 323 316 309 305 302 300 296 292 292 291 290 293 299 305
71 72 73 75 77 79 76 76 73 73 69 70 66 66 67 64 59 48 45 45 41 37 33 20 359 343 322 315 306 301 298 298 297 293 289 291 290 287 287 287 289 294 298
63 64 66 66 66 67 68 71 69 64 59 56 54 53 54 52 45 36 25 11 4 3 356 348 333 322 314 308 302 299 300 298 295 294 293 291 293 294 294 295 299 302 301
38 40 42 41 43 45 50 49 43 38 35 30 26 22 13 7 356 347 332 317 316 319 319 323 326 323 314 308 305 303 301 297 296 294 293 296 299 299 302 304 306 303 300
22 19 13 5 356 354 354 356 353 347 341 335 328 328 330 333 340 345 336 333 320 304 298 298 308 321 328 328 326 316 309 305 306 304 303 305 305 303 303 304 306 305 305
4 359 357 354 351 347 329 322 317 314 312 310 306 301 300 298 309 304 312 325 326 324 318 320 320 322 322 323 323 319 313 313 312 310 310 308 306 306 308 306 305 304 306
349 347 343 340 336 338 337 332 313 306 303 298 295 295 294 297 293 299 313 311 308 309 292 291 296 299 304 308 308 307 307 308 307 307 305 305 304 306 307 306 304 306 306
341 339 340 340 338 338 337 333 328 312 295 302 305 308 316 305 306 317 312 295 297 292 289 289 294 301 302 305 306 307 308 308 308 308 307 306 306 307 305 304 306 309 310
338 333 330 331 334 336 336 335 334 329 322 315 308 319 319 314 315 319 319 314 308 307 304 306 309 310 312 313 316 317 317 316 317 315 312 309 307 308 310 311 312 312 312
340 338 337 336 335 335 334 332 332 328 333 328 320 343 341 343 327 321 328 332 330 326 322 317 315 315 318 322 324 323 322 322 319 318 317 319 320 320 320 319 317 314 314
340 341 345 349 348 347 354 357 358 358 353 343 336 344 351 348 346 343 341 338 336 334 333 334 334 333 331 330 330 329 329 328 328 327 326 324 324 326 327 325 324 322 319
336 338 339 333 332 340 342 349 348 350 354 356 355 354 357 353 353 356 358 358 359 358 355 350 345 340 336 332 330 329 328 326 322 319 317 318 320 322 323 326 322 318 316
341 340 340 350 356 3 10 16 16 14 11 13 11 8 8 10 11 8 5 1 355 347 340 333 328 325 323 321 319 317 317 316 313 310 310 311 312 314 317 318 318 314 313
339 347 354 5 16 19 25 31 38 42 42 40 36 24 11 4 358 351 346 343 339 335 333 331 330 329 327 325 322 319 316 311 302 297 302 305 305 307 310 313 312 308 308
349 13 26 34 39 45 50 52 47 37 26 15 6 359 353 350 345 340 337 336 333 331 328 327 325 323 321 320 318 315 311 308 300 289 294 304 307 305 310 316 314 311 312
16 58 71 70 62 49 39 30 23 16 8 1 357 351 344 341 340 339 336 334 332 330 329 328 325 322 319 317 315 314 311 308 300 285 282 297 296 296 303 310 313 305 304
Wind_Speed_850mb
33 31 31 31 30 27 33 36 38 37 37 39 38 43 48 53 65 74 74 96 95 83 79 82 86 91 88 85 86 76 65 63 62 31 40 30 25 26 24 23 19 12 17
35 33 31 30 25 19 16 15 14 14 15 12 13 17 25 32 39 45 49 52 56 51 55 58 58 55 41 27 25 22 16 14 19 27 28 26 23 23 15 10 14 14 16
44 42 36 30 29 26 23 20 19 18 18 18 17 16 11 9 9 13 14 10 6 10 14 17 29 32 38 31 19 15 14 9 10 9 19 19 17 16 15 13 15 20 18
54 55 52 51 51 51 49 45 43 42 43 45 45 49 44 43 39 36 32 32 34 40 45 43 30 21 17 14 11 10 14 13 14 11 13 17 19 17 18 20 15 13 15
65 63 63 59 56 57 55 51 49 50 50 47 46 47 49 48 47 40 37 33 28 30 28 22 15 16 16 12 11 11 11 11 11 15 19 21 19 18 17 13 12 11 13
62 62 56 58 55 54 53 51 47 45 42 38 36 32 24 29 30 28 30 29 24 21 20 18 17 13 12 12 13 14 15 16 15 14 16 16 16 14 11 10 10 11 13
60 59 54 49 49 49 47 45 44 42 38 35 33 32 33 34 33 30 26 23 21 21 20 20 19 18 16 14 13 12 12 13 12 12 9 9 8 6 7 9 12 15 18
62 59 54 50 49 49 47 47 44 41 40 40 39 37 37 40 34 34 29 25 25 24 24 23 20 18 16 14 12 10 10 10 9 8 5 2 2 6 11 13 16 18 21
63 56 51 49 48 45 44 43 40 35 36 37 36 33 33 36 31 31 27 24 22 23 20 19 16 14 12 10 7 6 6 5 4 3 4 5 8 12 16 18 18 20 23
55 53 48 46 47 45 43 42 39 34 35 34 31 30 30 29 26 24 22 21 18 17 15 12 11 8 7 6 6 5 5 5 5 7 8 11 13 16 19 20 22 24 25
46 42 43 42 42 42 37 36 33 30 29 27 24 25 23 21 20 17 17 15 14 12 11 9 6 4 5 6 8 9 9 12 13 16 18 19 20 20 23 25 27 28 30
36 37 37 37 36 34 29 30 27 25 23 22 21 20 19 18 17 14 14 12 10 9 8 7 7 9 11 12 15 16 17 18 20 20 21 23 24 25 26 27 28 29 31
27 28 26 26 26 25 23 23 20 21 20 19 17 16 16 14 12 10 9 8 8 8 9 11 13 16 19 21 25 27 26 25 25 26 27 28 30 31 31 31 32 35 34
23 22 20 19 18 15 13 13 12 12 12 12 11 11 11 11 12 11 10 11 12 13 15 17 20 25 28 29 26 26 26 27 28 30 32 33 32 33 36 39 40 41 44
30 27 23 17 13 13 12 11 10 9 9 10 10 9 10 12 13 16 21 24 23 18 19 19 22 27 25 25 26 26 26 27 29 32 35 38 38 39 39 41 43 44 46
28 26 24 23 21 17 13 14 14 14 14 14 15 15 14 15 19 20 21 20 21 25 27 27 26 24 30 32 34 34 36 35 34 36 39 41 43 43 43 42 43 44 44
34 31 29 26 23 20 18 14 13 15 16 18 20 22 22 23 22 28 23 20 23 21 23 24 25 28 32 36 39 39 39 39 40 40 42 44 46 44 44 44 42 41 39
35 34 31 27 24 23 22 19 16 13 14 14 22 21 21 24 30 29 26 23 27 24 22 25 29 34 38 39 37 37 37 38 39 40 41 41 42 41 39 39 38 39 39
33 30 27 24 23 20 19 18 15 12 11 12 15 17 15 18 22 24 23 21 20 20 22 24 27 30 31 32 32 32 33 34 35 35 34 35 36 37 36 35 35 35 35
26 23 19 17 16 14 12 11 9 8 9 10 15 13 14 14 15 16 18 19 20 21 22 23 24 25 27 29 30 31 30 30 29 29 30 32 32 33 32 32 31 32 31
21 18 15 13 11 10 9 8 8 7 7 8 11 15 15 15 16 16 16 16 16 17 19 21 22 24 25 26 27 27 27 28 27 27 26 26 26 25 24 26 26 26 27
16 14 11 9 8 7 7 7 8 9 10 12 15 17 18 19 19 19 20 22 23 23 23 23 24 23 23 23 24 24 25 25 25 24 24 24 23 23 24 25 26 28 30
15 13 11 10 10 10 9 8 9 9 10 11 12 13 13 14 15 15 15 15 16 17 20 22 24 25 28 30 31 31 29 26 25 24 24 24 25 27 29 30 32 33 32
10 10 11 10 9 8 8 8 9 10 12 13 13 13 13 15 16 18 21 22 24 27 29 31 33 34 33 32 33 33 33 32 30 29 30 32 34 36 36 40 41 38 38
5 5 6 6 7 8 11 11 11 12 12 13 13 14 15 17 19 21 23 24 27 29 31 32 33 34 35 36 35 34 33 33 32 31 33 41 46 40 39 41 39 36 36
4 6 8 8 8 8 9 11 11 11 11 12 13 14 17 19 21 23 26 28 31 32 34 35 37 39 40 41 41 42 41 40 38 36 37 40 47 45 44 44 42 39 37
Wind_Direction_850mb
188 181 187 197 204 207 219 223 229 239 239 246 249 247 240 239 241 243 236 237 233 237 245 252 255 240 242 248 251 248 255 257 256 231 225 223 206 196 192 191 191 247 255
164 154 156 157 168 179 177 171 185 196 211 219 233 240 252 253 257 257 253 234 227 233 232 226 232 225 229 233 227 215 175 155 214 184 169 167 165 152 169 207 229 249 260
138 135 131 130 130 134 132 125 125 128 124 118 116 112 117 134 154 162 163 179 184 203 196 161 132 123 124 119 112 106 102 107 119 134 154 163 173 200 218 228 250 232 236
122 117 118 116 114 110 108 107 106 103 102 100 101 99 95 90 92 96 100 106 112 117 120 115 101 103 104 99 91 100 113 114 111 118 143 173 197 207 228 224 217 233 252
110 110 108 108 108 108 106 103 102 101 98 98 100 99 99 97 89 88 93 90 90 111 125 123 111 103 93 93 95 96 112 132 153 184 194 201 201 190 189 201 225 252 274
95 95 100 103 103 101 102 103 103 99 98 99 99 97 99 96 93 91 95 97 104 111 120 118 115 97 84 98 113 118 118 108 115 125 138 148 162 177 194 213 242 267 291
89 88 85 86 90 92 93 94 92 93 94 93 95 97 100 97 93 92 91 99 103 100 97 91 101 102 99 96 101 103 104 106 112 121 133 150 167 201 241 268 282 289 299
85 81 79 83 84 85 86 85 88 91 94 93 92 95 100 96 93 89 88 91 96 100 102 101 97 98 98 95 94 103 109 115 124 125 127 156 248 282 286 293 298 304 306
78 77 77 77 80 82 83 82 82 85 88 88 86 88 85 89 90 92 89 88 96 96 95 97 99 97 97 95 95 81 79 82 73 37 355 318 308 296 292 291 289 292 300
80 81 82 83 81 80 79 81 81 82 83 85 89 85 83 84 82 78 80 79 75 82 83 83 79 70 58 46 24 24 4 356 337 313 301 293 288 284 286 286 290 295 306
76 79 79 77 80 79 79 80 81 79 78 78 77 78 74 73 73 69 72 69 67 64 65 64 58 36 360 333 326 323 316 309 305 302 300 296 292 292 291 290 293 299 305
71 72 73 75 77 79 76 76 73 73 69 70 66 66 67 64 59 48 45 45 41 37 33 20 359 343 322 315 306 301 298 298 297 293 289 291 290 287 287 287 289 294 298
63 64 66 66 66 67 68 71 69 64 59 56 54 53 54 52 45 36 25 11 4 3 356 348 333 322 314 308 302 299 300 298 295 294 293 291 293 294 294 295 299 302 301
38 40 42 41 43 45 50 49 43 38 35 30 26 22 13 7 356 347 332 317 316 319 319 323 326 323 314 308 305 303 301 297 296 294 293 296 299 299 302 304 306 303 300
22 19 13 5 356 354 354 356 353 347 341 335 328 328 330 333 340 345 336 333 320 304 298 298 308 321 328 328 326 316 309 305 306 304 303 305 305 303 303 304 306 305 305
4 359 357 354 351 347 329 322 317 314 312 310 306 301 300 298 309 304 312 325 326 324 318 320 320 322 322 323 323 319 313 313 312 310 310 308 306 306 308 306 305 304 306
349 347 343 340 336 338 337 332 313 306 303 298 295 295 294 297 293 299 313 311 308 309 292 291 296 299 304 308 308 307 307 308 307 307 305 305 304 306 307 306 304 306 306
341 339 340 340 338 338 337 333 328 312 295 302 305 308 316 305 306 317 312 295 297 292 289 289 294 301 302 305 306 307 308 308 308 308 307 306 306 307 305 304 306 309 310
338 333 330 331 334 336 336 335 334 329 322 315 308 319 319 314 315 319 319 314 308 307 304 306 309 310 312 313 316 317 317 316 317 315 312 309 307 308 310 311 312 312 312
340 338 337 336 335 335 334 332 332 328 333 328 320 343 341 343 327 321 328 332 330 326 322 317 315 315 318 322 324 323 322 322 319 318 317 319 320 320 320 319 317 314 314
340 341 345 349 348 347 354 357 358 358 353 343 336 344 351 348 346 343 341 338 336 334 333 334 334 333 331 330 330 329 329 328 328 327 326 324 324 326 327 325 324 322 319
336 338 339 333 332 340 342 349 348 350 354 356 355 354 357 353 353 356 358 358 359 358 355 350 345 340 336 332 330 329 328 326 322 319 317 318 320 322 323 326 322 318 316
341 340 340 350 356 3 10 16 16 14 11 13 11 8 8 10 11 8 5 1 355 347 340 333 328 325 323 321 319 317 317 316 313 310 310 311 312 314 317 318 318 314 313
339 347 354 5 16 19 25 31 38 42 42 40 36 24 11 4 358 351 346 343 339 335 333 331 330 329 327 325 322 319 316 311 302 297 302 305 305 307 310 313 312 308 308
349 13 26 34 39 45 50 52 47 37 26 15 6 359 353 350 345 340 337 336 333 331 328 327 325 323 321 320 318 315 311 308 300 289 294 304 307 305 310 316 314 311 312
16 58 71 70 62 49 39 30 23 16 8 1 357 351 344 341 340 339 336 334 332 330 329 328 325 322 319 317 315 314 311 308 300 285 282 297 296 296 303 310 313 305 304